Location: Miss�
(46.9484°N, 0.1922°W)
Time: 23:08:29
(UTC+00:00)

Cosmos 2278 Rocket - Pass Details

Date: 02 March 2021
Orbit: 841 x 845 km, 71.0° (Epoch: 14 April)

Event Time Altitude Azimuth Distance (km) Brightness Sun altitude
Rises 18:53:52 0° 339° (NNW) 3,416 5.7 -12.0°
Reaches altitude 10° 18:57:26 10° 2° (N) 2,477 4.7 -12.6°
Maximum altitude 19:00:45 16° 38° (NE) 2,100 3.9 -13.2°
Enters shadow 19:02:43 13° 61° (ENE) 2,235 3.9 -13.5°
